1508112000.06,46567,14.38,75030.0,3.21,-23.85,-24.83,0,*7A
1508112001.26,46568,14.31,75024.0,3.25,-23.75,-24.77,0,*75
1508112002.48,46569,14.38,75028.5,3.21,-23.69,-24.77,0,*7D
1508112003.68,46570,14.38,75030.3,3.21,-23.79,-24.77,0,*74
1508112004.9,46571,14.38,75028.8,3.25,-23.49,-24.47,0,*71
1508112006.12,46572,14.38,75028.8,3.25,-23.49,-24.57,0,*73
1508112007.34,46573,14.38,75028.3,3.25,-23.49,-24.61,0,*77
1508112008.57,46574,14.38,75030.0,3.25,-23.43,-24.41,0,*78
1508112009.79,46575,14.38,75030.0,3.25,-23.49,-24.57,0,*74
1508112011.01,46576,14.38,75030.8,3.21,-23.85,-24.77,0,*71
1508112012.23,46577,14.38,75030.0,3.27,-23.89,-24.77,0,*7A
1508112013.43,46578,14.38,75028.5,3.25,-23.59,-24.61,0,*7D
1508112014.66,46579,14.38,75028.0,3.21,-23.95,-24.93,0,*75
1508112015.88,46580,14.38,75030.0,3.25,-23.89,-24.87,0,*7F
1508112017.1,46581,14.38,75028.0,3.27,-23.89,-24.77,0,*73
1508112018.35,46582,14.38,75032.5,3.25,-24.11,-25.03,0,*76
1508112019.54,46583,14.38,75028.8,3.25,-23.89,-24.93,0,*79
1508112020.78,46584,14.38,75028.5,3.21,-23.69,-24.67,0,*7F
1508112022.01,46585,14.38,75028.5,3.21,-23.99,-24.93,0,*7A
1508112023.23,46586,14.38,75028.0,3.21,-23.79,-24.83,0,*76
1508112024.45,46587,14.38,75026.8,3.25,-23.65,-24.61,0,*72
1508112025.69,46588,14.38,75032.5,3.21,-23.69,-24.83,0,*79
1508112026.92,46589,14.38,75030.8,3.25,-23.65,-24.61,0,*7C
1508112028.14,46590,14.38,75028.5,3.25,-23.33,-24.31,0,*72
1508112029.39,46591,14.38,75028.3,3.21,-23.33,-24.21,0,*76
1508112030.58,46592,14.38,75028.3,3.21,-23.39,-24.31,0,*7E
1508112031.83,46593,14.38,75024.0,3.25,-23.33,-24.41,0,*76
1508112033.05,46594,14.38,75028.8,3.25,-23.29,-24.31,0,*7D
1508112034.25,46595,14.31,75024.0,3.25,-23.59,-24.61,0,*7E
1508112035.48,46596,14.38,75026.8,3.25,-23.75,-24.71,0,*72
1508112036.7,46597,14.31,75024.5,3.25,-23.49,-24.47,0,*79
1508112037.9,46598,14.38,75030.0,3.25,-23.79,-24.77,0,*76
1508112039.14,46599,14.31,75026.3,3.27,-23.99,-24.93,0,*71
1508112040.39,46600,14.38,75028.8,3.27,-23.89,-24.87,0,*76
1508112041.61,46601,14.38,75026.5,3.27,-23.89,-24.77,0,*78
1508112042.81,46602,14.38,75030.0,3.25,-23.59,-24.57,0,*76
1508112044.06,46603,14.38,75028.3,3.25,-23.65,-24.71,0,*7C
1508112045.28,46604,14.38,75028.0,3.25,-23.79,-24.71,0,*76
1508112046.51,46605,14.38,75030.0,3.27,-23.75,-24.77,0,*7F
1508112047.76,46606,14.38,75030.0,3.27,-23.89,-24.87,0,*70
1508112048.99,46607,14.38,75028.8,3.25,-23.75,-24.71,0,*79
1508112050.19,46608,14.38,75026.5,3.25,-23.79,-24.77,0,*7C
1508112051.41,46609,14.38,75028.0,3.25,-23.79,-24.87,0,*72
1508112052.63,46610,14.38,75030.5,3.25,-23.49,-24.47,0,*75
1508112053.83,46611,14.38,75032.5,3.25,-23.43,-24.31,0,*7F
1508112055.03,46612,14.38,75028.5,3.25,-23.79,-24.77,0,*77
1508112056.3,46613,14.38,75028.0,3.27,-23.95,-24.87,0,*79
1508112057.53,46614,14.38,75034.5,3.25,-23.79,-24.87,0,*7E
1508112058.77,46615,14.38,75028.8,3.25,-23.29,-24.25,0,*72
1508112060.04,46616,14.38,75028.0,3.27,-23.33,-24.41,0,*7A
1508112061.3,46617,14.38,75030.8,3.27,-23.75,-24.71,0,*7A
1508112062.53,46618,14.38,75030.5,3.29,-23.75,-24.67,0,*7C
1508112063.78,46619,14.38,75028.3,3.27,-23.75,-24.71,0,*74
1508112065.03,46620,14.38,75030.0,3.27,-23.43,-24.41,0,*78
1508112066.31,46621,14.38,75030.8,3.27,-23.19,-24.25,0,*74
1508112067.55,46622,14.38,75028.5,3.27,-23.49,-24.47,0,*76
1508112068.79,46623,14.38,75030.0,3.29,-23.75,-24.71,0,*73
1508112070.06,46624,14.38,75030.8,3.27,-23.95,-24.87,0,*7D
1508112071.31,46625,14.38,75030.5,3.27,-23.89,-24.87,0,*71
1508112072.54,46626,14.38,75030.0,3.29,-23.89,-24.87,0,*7C
1508112073.74,46627,14.38,75030.0,3.29,-23.59,-24.61,0,*78
1508112074.99,46628,14.38,75028.8,3.27,-23.79,-24.71,0,*7A
1508112076.24,46629,14.38,75030.3,3.27,-23.49,-24.57,0,*7C
1508112077.49,46630,14.38,75028.8,3.27,-23.75,-24.71,0,*7F
1508112078.7,46631,14.38,75028.0,3.29,-23.43,-24.57,0,*71
1508112079.94,46632,14.38,75028.8,3.27,-23.65,-24.61,0,*7D
1508112081.19,46633,14.38,75028.8,3.27,-23.65,-24.61,0,*7C
1508112082.41,46634,14.38,75028.5,3.27,-23.59,-24.57,0,*71
1508112083.64,46635,14.38,75030.8,3.27,-23.59,-24.61,0,*75
1508112084.86,46636,14.38,75030.3,3.29,-23.75,-24.67,0,*70
1508112086.09,46637,14.38,75028.3,3.27,-23.75,-24.77,0,*7E
1508112087.37,46638,14.38,75030.0,3.27,-23.65,-24.71,0,*76
1508112088.6,46639,14.38,75026.8,3.29,-23.53,-24.51,0,*7E
1508112089.83,46640,14.38,75028.3,3.29,-23.53,-24.51,0,*70
1508112091.03,46641,14.38,75026.3,3.29,-23.59,-24.57,0,*7D
1508112092.26,46642,14.38,75030.8,3.29,-23.75,-24.83,0,*79
1508112093.51,46643,14.38,75026.0,3.29,-23.85,-24.71,0,*7A
1508112094.72,46644,14.38,75024.0,3.29,-23.43,-24.35,0,*77
1508112095.94,46645,14.38,75030.5,3.29,-23.29,-24.35,0,*7A
1508112097.17,46646,14.38,75026.8,3.29,-23.75,-24.71,0,*70
1508112098.4,46647,14.38,75024.5,3.27,-23.75,-24.77,0,*79
1508112099.66,46648,14.38,75030.5,3.29,-23.29,-24.21,0,*72
1508112100.91,46649,14.38,75024.8,3.29,-23.29,-24.41,0,*75
1508112102.13,46650,14.38,75024.5,3.29,-23.53,-24.57,0,*77
1508112103.34,46651,14.38,75024.8,3.29,-23.43,-24.51,0,*71
1508112104.54,46652,14.38,75030.5,3.29,-23.59,-24.51,0,*79
1508112105.8,46653,14.38,75024.5,3.29,-23.29,-24.21,0,*78
1508112107.02,46654,14.38,75026.0,3.31,-23.43,-24.57,0,*7B
1508112108.27,46655,14.38,75024.8,3.31,-23.53,-24.51,0,*7D
1508112109.52,46656,14.38,75024.5,3.31,-23.53,-24.51,0,*7E
1508112110.79,46657,14.38,75028.3,3.31,-23.85,-24.83,0,*7B
1508112112.04,46658,14.38,75028.5,3.31,-23.89,-24.87,0,*7C
1508112113.29,46659,14.38,75026.8,3.31,-23.53,-24.51,0,*71
1508112114.56,46660,14.38,75026.3,3.31,-23.85,-24.83,0,*7F
1508112115.84,46661,14.38,75024.5,3.31,-23.95,-24.87,0,*7B
1508112117.05,46662,14.38,75026.3,3.31,-23.39,-24.35,0,*77
1508112118.32,46663,14.38,75024.8,3.31,-23.29,-24.11,0,*71
1508112119.53,46664,14.38,75026.8,3.31,-23.39,-24.35,0,*71
1508112120.8,46665,14.38,75024.5,3.31,-23.85,-24.83,0,*7A
1508112122.08,46666,14.38,75024.5,3.33,-23.85,-24.71,0,*76
1508112123.33,46667,14.38,75030.0,3.31,-24.05,-24.87,0,*73
1508112124.56,46668,14.38,75028.5,3.31,-24.05,-25.09,0,*7B
1508112125.81,46669,14.38,75030.5,3.31,-23.89,-24.87,0,*7E
1508112127.09,46670,14.38,75030.3,3.31,-23.95,-24.87,0,*7B
1508112128.34,46671,14.38,75028.5,3.31,-23.75,-24.71,0,*7D
1508112129.59,46672,14.38,75028.0,3.31,-23.75,-24.83,0,*73
1508112130.84,46673,14.38,75030.3,3.31,-23.89,-24.83,0,*71
1508112132.11,46674,14.38,75026.3,3.31,-23.95,-24.87,0,*7F
1508112133.36,46675,14.31,75022.3,3.29,-23.69,-24.71,0,*7D
1508112134.63,46676,14.38,75026.8,3.31,-23.85,-24.83,0,*78
1508112135.91,46677,14.38,75026.5,3.31,-23.85,-24.83,0,*79
1508112137.16,46678,14.38,75030.8,3.31,-23.43,-24.41,0,*72
1508112138.42,46679,14.38,75024.5,3.31,-23.69,-24.71,0,*78
1508112139.71,46680,14.38,75028.8,3.33,-23.53,-24.71,0,*75
1508112140.96,46681,14.38,75026.8,3.31,-23.53,-24.57,0,*72
1508112142.23,46682,14.38,75030.8,3.31,-23.69,-24.71,0,*7C
1508112143.45,46683,14.38,75024.8,3.31,-23.59,-24.57,0,*7A
1508112144.7,46684,14.38,75026.0,3.31,-23.53,-24.51,0,*71
1508112145.98,46685,14.38,75024.8,3.33,-23.85,-24.67,0,*7C
1508112147.23,46686,14.38,75026.3,3.33,-23.79,-24.83,0,*76
1508112148.49,46687,14.38,75024.3,3.33,-23.99,-24.93,0,*78
1508112149.74,46688,14.38,75024.3,3.31,-23.75,-24.71,0,*7B
1508112151.02,46689,14.38,75026.8,3.31,-23.85,-24.83,0,*78
1508112152.25,46690,14.38,75026.8,3.31,-23.69,-24.57,0,*7B
1508112153.51,46691,14.38,75026.3,3.31,-23.75,-24.71,0,*73
1508112154.77,46692,14.38,75028.5,3.31,-23.69,-24.67,0,*7A
1508112156.03,46693,14.38,75030.5,3.31,-23.75,-24.71,0,*71
1508112157.28,46694,14.38,75024.8,3.33,-23.85,-24.77,0,*7D
1508112158.51,46695,14.38,75026.8,3.31,-24.05,-24.97,0,*7F
1508112159.76,46696,14.38,75026.8,3.31,-23.89,-24.87,0,*7E
1508112161.0,46697,14.38,75026.0,3.31,-23.89,-24.83,0,*7B
1508112162.27,46698,14.38,75026.0,3.31,-23.85,-24.83,0,*78
1508112163.52,46699,14.38,75030.0,3.31,-24.11,-24.97,0,*76
1508112164.77,46700,14.38,75024.0,3.31,-24.11,-25.09,0,*71
1508112166.03,46701,14.38,75030.5,3.31,-24.11,-25.09,0,*70
1508112167.26,46702,14.38,75028.0,3.29,-24.11,-25.19,0,*7B
1508112168.48,46703,14.38,75026.8,3.29,-23.89,-24.83,0,*7E
1508112169.73,46704,14.38,75026.3,3.29,-23.69,-24.71,0,*7A
1508112170.99,46705,14.38,75028.8,3.29,-23.95,-24.87,0,*71
1508112172.21,46706,14.38,75028.5,3.29,-23.89,-24.87,0,*7F
1508112173.44,46707,14.38,75028.3,3.29,-23.89,-24.83,0,*7A
1508112174.69,46708,14.38,75024.5,3.31,-23.75,-24.71,0,*72
1508112175.9,46709,14.38,75028.8,3.29,-24.05,-25.09,0,*74
1508112177.14,46710,14.38,75030.0,3.29,-24.11,-25.09,0,*79
1508112178.41,46711,14.38,75024.8,3.27,-24.11,-25.03,0,*7C
1508112179.66,46712,14.38,75028.0,3.29,-23.95,-24.83,0,*73
1508112180.88,46713,14.38,75028.8,3.27,-23.89,-24.93,0,*70
1508112182.11,46714,14.38,75028.0,3.29,-23.75,-24.83,0,*7B
1508112183.37,46715,14.38,75030.5,3.29,-23.85,-24.71,0,*78
1508112184.59,46716,14.38,75030.3,3.29,-23.89,-24.83,0,*7A
1508112185.83,46717,14.38,75024.0,3.29,-23.75,-24.71,0,*75
1508112187.06,46718,14.38,75028.0,3.29,-23.75,-24.67,0,*7D
1508112188.25,46719,14.38,75024.8,3.29,-23.39,-24.35,0,*73
1508112189.48,46720,14.38,75030.5,3.29,-23.89,-24.87,0,*7B
1508112190.68,46721,14.38,75034.0,3.29,-24.05,-24.97,0,*78
1508112191.93,46722,14.38,75030.8,3.29,-23.95,-24.87,0,*74
1508112193.18,46723,14.38,75028.5,3.27,-23.99,-24.93,0,*72
1508112194.44,46724,14.38,75030.3,3.29,-23.85,-24.71,0,*7A
1508112195.68,46725,14.38,75024.8,3.27,-23.95,-24.93,0,*78
1508112196.93,46726,14.38,75028.3,3.27,-23.99,-24.93,0,*77
1508112198.2,46727,14.38,75026.8,3.27,-23.95,-24.87,0,*7F
1508112199.4,46728,14.38,75024.5,3.29,-24.05,-24.97,0,*71
1508112200.63,46729,14.38,75026.8,3.29,-24.11,-25.19,0,*72
1508112201.9,46730,14.38,75026.8,3.27,-24.15,-25.03,0,*7B
1508112203.13,46731,14.38,75028.0,3.27,-23.89,-24.77,0,*7A
1508112204.4,46732,14.38,75024.8,3.27,-24.15,-25.03,0,*79
1508112205.65,46733,14.38,75028.5,3.27,-24.25,-25.23,0,*79
1508112206.89,46734,14.38,75024.8,3.29,-24.11,-25.09,0,*7F
1508112208.16,46735,14.38,75026.3,3.27,-23.85,-24.87,0,*7D
1508112209.38,46736,14.38,75028.0,3.27,-23.79,-24.77,0,*72
1508112210.61,46737,14.38,75028.0,3.29,-23.89,-24.87,0,*7D
1508112211.88,46738,14.38,75028.0,3.27,-23.95,-25.03,0,*7C
1508112213.11,46739,14.38,75028.0,3.27,-23.75,-24.77,0,*71
1508112214.39,46740,14.38,75024.0,3.27,-23.99,-25.03,0,*7F
1508112215.62,46741,14.38,75028.0,3.29,-23.75,-24.83,0,*7B
1508112216.84,46742,14.38,75028.5,3.27,-23.59,-24.61,0,*74
1508112218.09,46743,14.38,75024.3,3.27,-23.89,-24.87,0,*70
1508112219.34,46744,14.38,75028.0,3.27,-24.11,-25.13,0,*7D
1508112220.61,46745,14.38,75024.0,3.27,-24.15,-25.03,0,*79
1508112221.86,46746,14.38,75026.0,3.27,-23.79,-24.87,0,*7A
1508112223.08,46747,14.38,75028.0,3.27,-23.79,-24.77,0,*74
1508112224.33,46748,14.38,75026.3,3.29,-23.85,-24.83,0,*7D
1508112225.58,46749,14.38,75030.3,3.27,-24.15,-25.13,0,*74
1508112226.83,46750,14.38,75028.5,3.27,-23.89,-24.87,0,*72
1508112228.06,46751,14.38,75028.5,3.27,-23.75,-24.61,0,*78
1508112229.26,46752,14.38,75028.5,3.29,-24.05,-24.97,0,*7C
1508112230.51,46753,14.38,75026.3,3.27,-24.11,-24.93,0,*72
1508112231.76,46754,14.38,75028.3,3.27,-23.89,-24.87,0,*76
1508112232.98,46755,14.38,75028.0,3.27,-23.75,-24.77,0,*7B
1508112234.2,46756,14.38,75026.3,3.27,-23.59,-24.57,0,*74
1508112235.46,46757,14.31,75020.8,3.27,-23.43,-24.41,0,*79
1508112236.73,46758,14.38,75024.5,3.27,-23.65,-24.71,0,*71
1508112238.0,46759,14.38,75026.3,3.27,-23.65,-24.71,0,*70
1508112239.23,46760,14.31,75022.3,3.27,-23.43,-24.51,0,*7C
1508112240.47,46761,14.38,75030.0,3.29,-23.69,-24.67,0,*7E
1508112241.72,46762,14.38,75028.0,3.27,-23.79,-24.71,0,*75
1508112242.96,46763,14.38,75026.3,3.29,-23.69,-24.67,0,*7C
1508112244.21,46764,14.38,75026.5,3.27,-23.49,-24.47,0,*75
1508112245.48,46765,14.38,75026.0,3.27,-23.65,-24.67,0,*78
1508112246.68,46766,14.38,75030.0,3.29,-23.59,-24.51,0,*7F
1508112247.93,46767,14.38,75024.5,3.29,-23.69,-24.71,0,*7F
1508112249.16,46768,14.38,75024.5,3.29,-23.89,-24.87,0,*77
1508112250.36,46769,14.38,75026.8,3.29,-23.59,-24.57,0,*76
1508112251.61,46770,14.38,75026.0,3.29,-23.69,-24.71,0,*79
1508112252.86,46771,14.38,75028.5,3.29,-23.53,-24.41,0,*72
1508112254.09,46772,14.38,75024.0,3.29,-23.53,-24.51,0,*70
1508112255.29,46773,14.38,75028.0,3.29,-23.59,-24.51,0,*7B
1508112256.52,46774,14.38,75030.3,3.29,-23.89,-24.71,0,*73
1508112257.77,46775,14.38,75030.3,3.31,-23.89,-24.87,0,*72
1508112259.04,46776,14.38,75028.3,3.31,-23.53,-24.67,0,*78
1508112260.31,46777,14.38,75030.3,3.31,-23.69,-24.71,0,*77
1508112261.55,46778,14.38,75026.0,3.29,-23.69,-24.83,0,*7C
1508112262.75,46779,14.38,75030.8,3.29,-23.59,-24.57,0,*77
1508112264.01,46780,14.38,75028.8,3.29,-23.95,-24.87,0,*7C
1508112265.26,46781,14.38,75028.5,3.29,-23.85,-24.87,0,*7C
1508112266.51,46782,14.38,75026.8,3.27,-23.89,-24.83,0,*79
1508112267.73,46783,14.38,75028.5,3.29,-23.89,-24.83,0,*76
1508112268.96,46784,14.38,75030.0,3.29,-23.89,-24.83,0,*71
1508112270.18,46785,14.38,75026.3,3.29,-23.95,-24.97,0,*78
1508112271.41,46786,14.38,75026.8,3.29,-23.89,-24.83,0,*73
1508112272.66,46787,14.38,75026.8,3.27,-23.65,-24.61,0,*72
1508112273.89,46788,14.38,75028.0,3.29,-23.75,-24.71,0,*73
1508112275.12,46789,14.38,75028.5,3.29,-23.75,-24.67,0,*75
1508112276.35,46790,14.38,75028.0,3.29,-23.53,-24.51,0,*7C
1508112277.58,46791,14.38,75030.0,3.29,-23.43,-24.41,0,*7D
1508112278.83,46792,14.38,75026.0,3.29,-23.85,-24.83,0,*7A
1508112280.07,46793,14.38,75028.3,3.31,-23.59,-24.67,0,*79
1508112281.31,46794,14.38,75028.0,3.31,-23.69,-24.57,0,*7E
1508112282.56,46795,14.38,75026.0,3.31,-23.75,-24.67,0,*71
1508112283.81,46796,14.38,75028.0,3.31,-23.75,-24.67,0,*72
1508112285.06,46797,14.38,75028.0,3.31,-23.53,-24.35,0,*70
1508112286.3,46798,14.38,75032.0,3.31,-23.53,-24.57,0,*7B
1508112287.55,46799,14.38,75026.8,3.31,-23.75,-24.67,0,*7D
1508112288.83,46800,14.38,75026.3,3.31,-23.85,-24.71,0,*7A
1508112290.08,46801,14.38,75030.8,3.33,-23.49,-24.51,0,*7B
1508112291.33,46802,14.38,75028.8,3.31,-23.59,-24.71,0,*79
1508112292.58,46803,14.38,75032.0,3.31,-23.89,-24.83,0,*78
1508112293.83,46804,14.38,75026.3,3.31,-23.89,-24.83,0,*7F
1508112295.1,46805,14.38,75028.3,3.31,-23.85,-24.83,0,*72
1508112296.35,46806,14.38,75026.3,3.29,-23.95,-24.83,0,*79
1508112297.63,46807,14.38,75030.5,3.33,-23.85,-24.83,0,*72
1508112298.88,46808,14.38,75030.3,3.31,-23.89,-24.87,0,*77
1508112300.15,46809,14.38,75026.0,3.31,-23.85,-24.83,0,*7E
1508112301.42,46810,14.38,75030.5,3.31,-23.69,-24.71,0,*79
1508112302.66,46811,14.38,75028.0,3.31,-23.89,-24.83,0,*7B
1508112303.94,46812,14.38,75028.0,3.31,-23.85,-24.71,0,*79
1508112305.2,46813,14.38,75030.0,3.31,-23.69,-24.67,0,*7D
1508112306.47,46814,14.38,75026.3,3.31,-23.95,-24.87,0,*77
1508112307.71,46815,14.38,75026.5,3.31,-24.05,-25.09,0,*7F
1508112308.96,46816,14.38,75028.0,3.31,-24.11,-25.09,0,*79
1508112310.19,46817,14.38,75028.0,3.29,-24.11,-25.19,0,*70
1508112311.41,46818,14.38,75026.3,3.31,-24.05,-24.97,0,*74
1508112312.66,46819,14.38,75026.0,3.31,-23.89,-24.87,0,*77
1508112313.93,46820,14.38,75030.8,3.31,-23.85,-24.83,0,*75
1508112315.18,46821,14.38,75030.0,3.29,-24.11,-24.87,0,*73
1508112316.39,46822,14.38,75026.8,3.29,-24.05,-24.97,0,*74
1508112317.64,46823,14.38,75028.0,3.29,-23.95,-24.87,0,*7A
1508112318.87,46824,14.38,75026.8,3.29,-24.11,-24.97,0,*77
1508112320.1,46825,14.38,75026.3,3.29,-24.21,-25.19,0,*72
1508112321.38,46826,14.38,75026.5,3.27,-24.11,-25.03,0,*77
1508112322.63,46827,14.38,75024.3,3.29,-23.95,-24.87,0,*7E
1508112323.88,46828,14.38,75030.0,3.27,-23.79,-24.87,0,*7D
1508112325.13,46829,14.38,75024.5,3.29,-23.95,-24.87,0,*70
1508112326.4,46830,14.38,75028.8,3.27,-24.15,-25.03,0,*74
1508112327.65,46831,14.38,75030.0,3.27,-23.95,-24.93,0,*72
1508112328.9,46832,14.38,75026.3,3.27,-23.79,-24.71,0,*7F
1508112330.15,46833,14.38,75028.8,3.29,-23.85,-24.71,0,*73
1508112331.36,46834,14.38,75030.0,3.29,-23.89,-24.77,0,*7E
1508112332.61,46835,14.38,75030.8,3.29,-23.85,-24.83,0,*78
1508112333.83,46836,14.38,75028.3,3.29,-23.89,-24.87,0,*73
1508112335.07,46837,14.31,75022.3,3.29,-24.05,-24.87,0,*71
1508112336.27,46838,14.38,75026.3,3.29,-24.05,-24.97,0,*7F
1508112337.52,46839,14.38,75026.3,3.29,-23.95,-24.71,0,*78
1508112338.8,46840,14.38,75030.0,3.27,-24.11,-25.03,0,*77
1508112340.05,46841,14.38,75026.8,3.29,-23.95,-24.87,0,*7E
1508112341.32,46842,14.38,75030.3,3.27,-24.15,-25.03,0,*71
1508112342.57,46843,14.38,75026.5,3.27,-23.99,-25.13,0,*72
1508112343.85,46844,14.38,75026.0,3.27,-23.99,-24.87,0,*79
1508112345.09,46845,14.38,75028.0,3.27,-23.89,-24.87,0,*79
1508112346.32,46846,14.38,75026.8,3.27,-23.79,-24.77,0,*7A
1508112347.57,46847,14.38,75024.5,3.27,-24.11,-24.93,0,*78
1508112348.79,46848,14.31,75024.5,3.27,-23.89,-24.77,0,*7B
1508112350.06,46849,14.38,75024.5,3.27,-23.95,-24.87,0,*78
1508112351.29,46850,14.38,75030.3,3.27,-23.79,-24.77,0,*7D
1508112352.51,46851,14.38,75028.3,3.29,-23.89,-24.83,0,*76
1508112353.76,46852,14.38,75030.8,3.27,-23.79,-24.71,0,*79
1508112355.01,46853,14.38,75026.3,3.27,-23.99,-24.93,0,*7A
1508112356.24,46854,14.38,75026.3,3.29,-24.05,-24.83,0,*70
1508112357.49,46855,14.38,75028.8,3.27,-23.95,-24.93,0,*70
1508112358.76,46856,14.38,75028.5,3.27,-23.95,-24.87,0,*76
1508112360.01,46857,14.38,75024.0,3.27,-23.95,-24.93,0,*72
1508112361.28,46858,14.38,75026.5,3.27,-23.95,-24.87,0,*78
1508112362.5,46859,14.38,75026.8,3.27,-23.79,-24.77,0,*74
1508112363.73,46860,14.31,75024.8,3.29,-23.89,-24.83,0,*74
1508112364.95,46861,14.38,75026.5,3.27,-23.89,-24.93,0,*7A
1508112366.2,46862,14.38,75030.5,3.27,-24.25,-25.23,0,*72
1508112367.45,46863,14.31,75024.8,3.27,-24.15,-25.23,0,*70
1508112368.7,46864,14.38,75024.0,3.27,-24.15,-25.23,0,*77
1508112369.97,46865,14.38,75026.3,3.27,-23.95,-24.87,0,*76
1508112371.22,46866,14.38,75028.0,3.27,-23.75,-24.71,0,*72
1508112372.49,46867,14.38,75024.3,3.27,-23.49,-24.41,0,*7F
1508112373.74,46868,14.38,75026.3,3.27,-23.99,-24.93,0,*72
1508112375.02,46869,14.38,75024.3,3.27,-24.11,-25.03,0,*7C
1508112376.25,46870,14.38,75026.3,3.29,-23.75,-24.83,0,*76
1508112377.47,46871,14.38,75026.0,3.27,-23.79,-24.93,0,*74
1508112378.74,46872,14.38,75026.0,3.27,-24.15,-25.03,0,*72
1508112379.99,46873,14.38,75026.3,3.27,-23.95,-24.93,0,*74
1508112381.23,46874,14.38,75024.8,3.27,-23.99,-24.93,0,*7F
1508112382.44,46875,14.38,75026.0,3.29,-24.05,-24.97,0,*76
1508112383.69,46876,14.38,75024.8,3.27,-23.79,-24.87,0,*76
1508112384.94,46877,14.38,75026.5,3.27,-24.25,-25.13,0,*75
1508112386.22,46878,14.38,75024.5,3.27,-23.99,-24.87,0,*76
1508112387.49,46879,14.38,75024.0,3.27,-23.95,-25.03,0,*76
1508112388.74,46880,14.38,75026.0,3.27,-23.99,-24.93,0,*74
1508112389.94,46881,14.38,75026.0,3.25,-23.75,-24.57,0,*7D
1508112391.18,46882,14.38,75026.0,3.21,-23.69,-24.83,0,*7E
1508112392.37,46883,14.38,75026.8,3.25,-23.59,-24.47,0,*70
1508112393.65,46884,14.38,75022.3,3.27,-23.99,-24.87,0,*75
1508112394.9,46885,14.38,75024.0,3.25,-23.99,-25.03,0,*7B
1508112396.18,46886,14.38,75026.5,3.27,-24.25,-25.29,0,*72
1508112397.46,46887,14.38,75024.5,3.27,-24.25,-25.29,0,*73
1508112398.7,46888,14.31,75020.5,3.25,-24.15,-25.03,0,*75
1508112399.93,46889,14.38,75026.0,3.21,-23.95,-24.93,0,*77
1508112401.15,46890,14.38,75024.0,3.25,-24.11,-24.93,0,*70
1508112402.42,46891,14.38,75026.0,3.27,-23.99,-25.03,0,*7C
1508112403.64,46892,14.38,75026.5,3.25,-24.15,-25.23,0,*7C
1508112404.86,46893,14.38,75026.5,3.25,-23.95,-24.93,0,*78
1508112406.08,46894,14.38,75026.3,3.25,-24.15,-25.13,0,*79
1508112407.31,46895,14.38,75024.3,3.25,-24.11,-25.13,0,*7C
1508112408.52,46896,14.38,75026.3,3.21,-24.05,-25.09,0,*75
1508112409.74,46897,14.38,75026.3,3.21,-23.95,-24.93,0,*78
1508112410.96,46898,14.38,75030.3,3.25,-23.95,-24.93,0,*73
1508112412.19,46899,14.38,75028.3,3.21,-23.99,-24.93,0,*7A
1508112413.41,46900,14.38,75024.8,3.25,-23.99,-24.93,0,*7F
1508112414.63,46901,14.38,75028.3,3.25,-23.89,-24.87,0,*7A
1508112415.85,46902,14.38,75026.8,3.21,-24.15,-25.19,0,*79
1508112417.1,46903,14.38,75026.5,3.25,-24.11,-25.03,0,*73
1508112418.32,46904,14.38,75026.3,3.25,-24.11,-24.93,0,*7C
1508112419.52,46905,14.38,75026.8,3.25,-24.05,-24.97,0,*7C
1508112420.75,46906,14.38,75028.0,3.21,-23.99,-25.09,0,*7F
1508112421.95,46907,14.38,75028.3,3.21,-24.05,-24.97,0,*7A
1508112423.15,46908,14.38,75030.0,3.21,-24.05,-24.97,0,*75
1508112424.38,46909,14.38,75028.3,3.21,-23.99,-25.09,0,*70
1508112425.6,46910,14.38,75026.5,3.25,-23.79,-24.87,0,*75
1508112426.83,46911,14.38,75026.3,3.19,-23.79,-24.77,0,*74
1508112428.07,46912,14.38,75026.0,3.19,-23.69,-24.61,0,*71
1508112429.27,46913,14.38,75026.3,3.25,-23.75,-24.77,0,*75
1508112430.47,46914,14.38,75026.3,3.25,-23.79,-24.77,0,*7E
1508112431.72,46915,14.31,75024.5,3.21,-23.85,-24.83,0,*73
1508112432.94,46916,14.38,75026.3,3.21,-23.69,-24.77,0,*79
1508112434.16,46917,14.38,75024.8,3.25,-23.65,-24.77,0,*70
1508112435.37,46918,14.38,75024.5,3.21,-23.79,-24.77,0,*76
1508112436.59,46919,14.38,75026.3,3.25,-23.95,-24.93,0,*7B
1508112437.81,46920,14.38,75026.0,3.25,-23.95,-24.93,0,*71
1508112439.03,46921,14.38,75026.0,3.21,-24.15,-25.19,0,*78
1508112440.26,46922,14.38,75030.0,3.21,-23.95,-25.09,0,*75
1508112441.49,46923,14.38,75028.0,3.21,-24.11,-25.09,0,*7F
1508112442.69,46924,14.38,75028.0,3.21,-24.05,-24.97,0,*7B
1508112443.94,46925,14.38,75024.5,3.25,-24.11,-25.03,0,*77
1508112445.15,46926,14.38,75024.5,3.21,-24.05,-25.09,0,*7F
1508112446.37,46927,14.31,75024.8,3.25,-23.99,-24.97,0,*7E
1508112447.59,46928,14.38,75024.8,3.21,-23.85,-24.93,0,*7C
1508112448.79,46929,14.38,75024.5,3.21,-24.05,-24.97,0,*76
1508112450.02,46930,14.38,75024.8,3.21,-24.15,-25.09,0,*79
1508112451.25,46931,14.38,75028.8,3.21,-23.99,-24.97,0,*7D
1508112452.47,46932,14.38,75026.3,3.21,-23.95,-24.93,0,*76
1508112453.72,46933,14.38,75026.5,3.21,-23.99,-24.83,0,*7A
1508112454.94,46934,14.38,75028.5,3.21,-23.95,-24.93,0,*70
1508112456.14,46935,14.38,75024.0,3.21,-23.79,-24.93,0,*73
1508112457.37,46936,14.38,75028.3,3.21,-23.85,-24.97,0,*77
1508112458.59,46937,14.38,75024.5,3.21,-23.95,-24.97,0,*77
1508112459.8,46938,14.38,75028.5,3.21,-24.31,-25.09,0,*77
1508112461.05,46939,14.38,75024.5,3.19,-24.15,-25.19,0,*7A
1508112462.29,46940,14.38,75026.3,3.19,-23.85,-24.93,0,*79
1508112463.56,46941,14.38,75026.8,3.19,-23.65,-24.67,0,*7D
1508112464.83,46942,14.38,75026.3,3.19,-23.85,-24.83,0,*7A
1508112466.1,46943,14.38,75028.0,3.19,-23.85,-24.83,0,*7B
1508112467.35,46944,14.38,75028.5,3.19,-23.49,-24.51,0,*73
1508112468.58,46945,14.31,75024.8,3.21,-23.53,-24.61,0,*71
1508112469.8,46946,14.38,75024.5,3.21,-23.79,-24.67,0,*7C
1508112471.01,46947,14.38,75024.3,3.21,-24.05,-25.09,0,*78
1508112472.26,46948,14.38,75026.8,3.19,-24.15,-25.09,0,*7D
1508112473.48,46949,14.38,75028.8,3.21,-23.99,-24.97,0,*72
1508112474.71,46950,14.38,75028.5,3.21,-24.15,-25.19,0,*7E
1508112475.96,46951,14.38,75028.5,3.19,-24.15,-25.09,0,*75
1508112477.2,46952,14.38,75028.8,3.19,-23.95,-24.93,0,*7B
1508112478.48,46953,14.38,75026.8,3.19,-23.85,-24.83,0,*7A
1508112479.7,46954,14.38,75030.5,3.17,-23.89,-24.87,0,*7B
1508112480.95,46955,14.38,75030.8,3.19,-23.95,-24.93,0,*7C
1508112482.19,46956,14.38,75024.5,3.19,-23.85,-24.93,0,*7E
1508112483.44,46957,14.38,75028.8,3.19,-23.79,-24.83,0,*7D
1508112484.71,46958,14.38,75026.5,3.19,-23.85,-24.83,0,*71
1508112485.96,46959,14.38,75028.3,3.19,-23.85,-24.93,0,*71
1508112487.18,46960,14.31,75026.5,3.17,-23.99,-24.97,0,*7C
1508112488.44,46961,14.38,75028.8,3.19,-23.99,-25.09,0,*75
1508112489.68,46962,14.38,75030.8,3.19,-23.99,-24.93,0,*74
1508112490.9,46963,14.38,75028.0,3.17,-23.89,-24.83,0,*7B
1508112492.15,46964,14.38,75030.8,3.19,-23.95,-24.93,0,*7E
1508112493.39,46965,14.38,75026.3,3.19,-23.69,-24.77,0,*76
1508112494.59,46966,14.38,75024.0,3.17,-24.05,-24.97,0,*78
1508112495.85,46967,14.38,75026.8,3.19,-24.15,-25.09,0,*70
1508112497.08,46968,14.38,75026.8,3.19,-24.05,-25.09,0,*7E
1508112498.32,46969,14.38,75024.8,3.19,-23.99,-24.97,0,*7B
1508112499.55,46970,14.38,75028.0,3.17,-23.89,-24.87,0,*7D
1508112500.77,46971,14.38,75030.8,3.17,-23.95,-24.97,0,*70
1508112502.02,46972,14.38,75028.8,3.17,-24.11,-25.03,0,*74
1508112503.28,46973,14.38,75028.0,3.19,-24.21,-24.97,0,*74